Content
SEND FEEDBACK

Daily
Averages
Monthly
Summary
United States of America

HAVANA, NORTH DAKOTA


Home > North America > United States > North Dakota
Elevation: 1257 feet     Latitude: 46 02N     Longitude: 097 36W

WEATHER
 
SELECT A DAY
Number of Records: 73,604;   Date Range: 5/13/11 - 6/4/14
 
SHARE

PRINT THIS DATA

[ ← Previous Day ]
WEATHER ALMANAC - FEBRUARY 13, 2013
[ Next Day → ]
[ °C ]   °F
Weather ElementAverageHighLow
Temperature24.7 °F32 °F (1:15 am)10.4 °F (6:35 am)
Dewpoint24.3 °F30.2 °F (3:35 pm)10.4 °F (6:35 am)
Humidity98.4 %100 % (5:35 am)87 % (1:15 am)
Barometer29.66 in29.78 in (11:55 pm)29.55 in (1:55 pm)
Wind Speed8.7 mph13.8 mph (12:35 pm)
Wind Gust18.4 mph (4:35 pm)
Weather ElementAverage
Visibility7.9 mi
Wind DirectionWSW (253.5 °)

Weather ElementTotal
Precipitation1.07 in
Heating Degree Days43.8 (Base 65)
Averaged from 71 records on February 13, 2013
WEATHER CONDITIONS BREAKOUT
WIND DIRECTION BREAKOUT
WEATHER BY HOUR - FEBRUARY 13, 2013
[ °C ]   °F
Local TimeTemperatureDewpointHumidityBarometerVisibilityWind DirectionWind SpeedGust SpeedPrecipitationEventsConditions
12:35 AM28.4 °F26.6 °F93 %29.77 in10.0 miWest (270°)6.9 mph
12:55 AM30.2 °F28.4 °F93 %29.77 in10.0 miWest (260°)8.1 mph
1:15 AM32.0 °F28.4 °F87 %29.76 in10.0 miWSW (250°)9.2 mph
1:35 AM32.0 °F28.4 °F87 %29.75 in10.0 miWest (260°)3.5 mph
1:55 AM28.4 °F26.6 °F93 %29.75 in10.0 miWNW (300°)4.6 mph
2:15 AM28.4 °F26.6 °F93 %29.75 in10.0 miWSW (250°)6.9 mph
2:35 AM28.4 °F26.6 °F93 %29.74 in10.0 miWSW (240°)5.8 mph
2:55 AM28.4 °F26.6 °F93 %29.74 in10.0 miWest (270°)3.5 mph
3:15 AM26.6 °F24.8 °F93 %29.74 in10.0 miWest (280°)4.6 mph
3:35 AM24.8 °F23.0 °F93 %29.73 in10.0 miWest (260°)9.2 mph
3:55 AM24.8 °F23.0 °F93 %29.72 in10.0 miWest (270°)9.2 mph
4:15 AM23.0 °F21.2 °F93 %29.71 in10.0 miWest (270°)9.2 mph
4:35 AM23.0 °F21.2 °F93 %29.70 in10.0 miWSW (250°)5.8 mph
4:55 AM17.6 °F15.8 °F93 %29.71 in10.0 miSW (230°)6.9 mphClear
5:15 AM21.2 °F19.4 °F93 %29.70 in10.0 miSW (220°)5.8 mph
5:35 AM14.0 °F14.0 °F100 %29.70 in10.0 miSSW (210°)6.9 mph
5:55 AM15.8 °F15.8 °F100 %29.69 in10.0 miSW (230°)8.1 mph
6:15 AM14.0 °F14.0 °F100 %29.68 in10.0 miSouth (180°)6.9 mph
6:35 AM10.4 °F10.4 °F100 %29.67 in10.0 miSSW (200°)8.1 mph
6:55 AM10.4 °F10.4 °F100 %29.66 in10.0 miSSW (200°)6.9 mph
7:15 AM10.4 °F10.4 °F100 %29.67 in10.0 miSSW (200°)5.8 mph
7:35 AM12.2 °F12.2 °F100 %29.66 in10.0 miSouth (180°)6.9 mphOvercast
7:55 AM14.0 °F14.0 °F100 %29.66 in10.0 miSouth (170°)4.6 mph
8:15 AM15.8 °F15.8 °F100 %29.66 in10.0 miSSE (160°)6.9 mph
8:35 AM15.8 °F15.8 °F100 %29.66 in10.0 miSouth (180°)10.4 mph
8:55 AM17.6 °F17.6 °F100 %29.65 in10.0 miSouth (170°)8.1 mph
9:15 AM21.2 °F21.2 °F100 %29.65 in10.0 miSouth (180°)8.1 mph
9:35 AM23.0 °F23.0 °F100 %29.65 in10.0 miSouth (170°)6.9 mph
9:55 AM23.0 °F23.0 °F100 %29.65 in10.0 miSouth (180°)9.2 mph
10:15 AM23.0 °F23.0 °F100 %29.64 in1.8 miSouth (190°)10.4 mphSnowLight Snow
10:35 AM23.0 °F23.0 °F100 %29.63 in0.8 miSSE (160°)8.1 mph0.12 inSnowLight Snow
10:55 AM24.8 °F24.8 °F100 %29.62 in1.5 miSouth (170°)11.5 mph0.19 inSnowLight Snow
11:15 AM24.8 °F24.8 °F100 %29.60 in0.8 miSouth (170°)11.5 mph0.07 inSnowLight Snow
11:35 AM24.8 °F24.8 °F100 %29.59 in0.8 miSouth (180°)10.4 mph0.15 inSnowLight Snow
11:55 AM24.8 °F24.8 °F100 %29.59 in0.8 miSSW (200°)11.5 mph0.23 inSnowLight Snow
12:15 PM24.8 °F24.8 °F100 %29.58 in0.8 miSouth (190°)12.7 mph0.01 inSnowLight Snow
12:35 PM26.6 °F26.6 °F100 %29.57 in1.2 miSSW (200°)13.8 mph0.02 inSnowLight Snow
12:55 PM26.6 °F26.6 °F100 %29.57 in1.2 miSSW (210°)12.7 mph0.04 inSnowLight Snow
1:15 PM26.6 °F26.6 °F100 %29.56 in1.0 miSSW (200°)9.2 mph0.02 inSnowLight Snow
1:35 PM28.4 °F28.4 °F100 %29.56 in3.0 miSSW (200°)9.2 mph0.05 inSnowLight Snow
1:55 PM28.4 °F28.4 °F100 %29.55 in9.0 miSSW (210°)10.4 mph0.05 inSnowLight Snow
2:15 PM28.4 °F28.4 °F100 %29.55 in2.0 miSSW (200°)6.9 mphSnowLight Snow
2:35 PM28.4 °F28.4 °F100 %29.55 in4.0 miSW (220°)6.9 mph0.01 inSnowLight Snow
2:55 PM28.4 °F28.4 °F100 %29.55 in10.0 miSW (220°)8.1 mph0.01 inSnowLight Snow
3:15 PM28.4 °F28.4 °F100 %29.55 in9.0 miSW (230°)4.6 mph
3:35 PM30.2 °F30.2 °F100 %29.55 in10.0 miWSW (250°)3.5 mph
3:55 PM30.2 °F30.2 °F100 %29.55 in9.0 miCalmSnowLight Snow
4:15 PM30.2 °F30.2 °F100 %29.56 in10.0 miNNW (330°)5.8 mph
4:35 PM30.2 °F30.2 °F100 %29.57 in10.0 miNNW (340°)12.7 mph18.4 mph
4:55 PM28.4 °F28.4 °F100 %29.58 in10.0 miNNW (330°)10.4 mph
5:15 PM28.4 °F28.4 °F100 %29.59 in10.0 miNNW (330°)10.4 mph
5:35 PM28.4 °F28.4 °F100 %29.60 in10.0 miNNW (340°)10.4 mph
5:55 PM28.4 °F28.4 °F100 %29.61 in10.0 miNorth (350°)11.5 mph
6:15 PM28.4 °F28.4 °F100 %29.62 in7.0 miNorth (350°)11.5 mphRainLight Rain
6:35 PM28.4 °F28.4 °F100 %29.64 in5.0 miNNW (340°)12.7 mphSnowLight Snow
6:55 PM28.4 °F28.4 °F100 %29.65 in6.0 miNNW (340°)11.5 mph0.01 inSnowLight Snow
7:15 PM28.4 °F28.4 °F100 %29.66 in10.0 miNNW (340°)11.5 mphSnowLight Snow
7:35 PM28.4 °F28.4 °F100 %29.68 in9.0 miNNW (340°)12.7 mphSnowLight Snow
7:55 PM28.4 °F28.4 °F100 %29.68 in8.0 miNorth (350°)13.8 mph0.01 inSnowLight Snow
8:15 PM26.6 °F26.6 °F100 %29.70 in5.0 miNNW (340°)13.8 mphSnowLight Snow
8:35 PM26.6 °F26.6 °F100 %29.70 in3.0 miNNW (340°)9.2 mph0.03 inSnowLight Snow
8:55 PM26.6 °F26.6 °F100 %29.71 in4.0 miNNW (340°)12.7 mph0.05 inSnowLight Snow
9:15 PM26.6 °F26.6 °F100 %29.72 in9.0 miNorth (350°)8.1 mph
9:35 PM26.6 °F26.6 °F100 %29.73 in10.0 miNNW (340°)8.1 mph
9:55 PM26.6 °F26.6 °F100 %29.74 in10.0 miNNW (330°)9.2 mph
10:15 PM26.6 °F26.6 °F100 %29.75 in10.0 miNW (320°)10.4 mph
10:35 PM26.6 °F26.6 °F100 %29.75 in10.0 miNNW (330°)9.2 mph
10:55 PM26.6 °F26.6 °F100 %29.76 in10.0 miNNW (330°)11.5 mph
11:15 PM26.6 °F26.6 °F100 %29.77 in10.0 miNNW (340°)10.4 mph
11:35 PM26.6 °F26.6 °F100 %29.77 in10.0 miNNW (340°)8.1 mph
11:55 PM24.8 °F24.8 °F100 %29.78 in10.0 miNNW (330°)6.9 mph
Hourly data recorded from K2D5, located miles away from Havana, North Dakota







STORIES FROM OUR PARTNERS